Flag for Bosnia-Herzegovina Weather past 2 weeks in Mostar, Bosnia-Herzegovina

Now
72 °F

Rain. Partly sunny.


Feels Like: 71 °F
Forecast: 62 / 80 °F
Wind: 5 mph from Southwest

Location: Mostar

Current Time: Sep 1, 2014 at 3:57:17 PM

Latest Report: Sep 1, 2014 at 3:30 PM


Visibility: 4 mi

Pressure: 29.65 "Hg

Humidity: 83%

Dew point: 66 °F

Location of MostarLocation

Historic Weather in Mostar — Graph

°F

Mostar temperature yesterday

Maximum temperature yesterday: 88 °F (at 2:30 PM)
Minimum temperature yesterday: 61 °F (at 6:00 AM)
Average temperature yesterday: 75 °F

Past Weeks' High & Low Weather Summary

 TemperatureHumidityPressure
High90 °F (Aug 21, 1:30 PM)100% (Aug 22, 6:00 AM)30.01 "Hg (Aug 22, 6:00 AM)
Low54 °F (Aug 19, 6:00 AM)22% (Aug 29, 1:30 PM)29.62 "Hg (Sep 1, 12:30 PM)
Average75 °F62%29.93 "Hg
* Reported Aug 17 2:00 PM — Sep 1 2:30 PM, Mostar, Weather by CustomWeather, © 2014

Note: Actual official high and low records may vary slightly from our data, if they occured in-between our weather recording intervals... More about our weather records

Advertising

Mostar weather history for previous 24 hours

 ConditionsComfort  
Time TempWeatherWind HumidityBarometerVisibility
2:30 PM
Sep 1
75 °FThundershowers. Partly sunny.14 mph69%29.65 "Hg4 mi
2:00 PM81 °FBroken clouds.17 mph48%29.62 "HgN/A
1:30 PM81 °FBroken clouds.18 mph48%29.62 "HgN/A
1:00 PM82 °FPartly sunny.14 mph48%29.62 "HgN/A
12:30 PM81 °FScattered clouds.5 mph58%29.62 "HgN/A
12:00 PM77 °FPartly sunny.10 mph61%29.65 "HgN/A
11:30 AM75 °FScattered clouds.10 mph65%29.68 "HgN/A
11:00 AM75 °FPartly sunny.10 mph65%29.68 "HgN/A
10:30 AM73 °FPartly sunny.12 mph69%29.68 "HgN/A
10:00 AM70 °FSprinkles. Broken clouds.10 mph78%29.68 "HgN/A
9:30 AM70 °FLight rain. Scattered clouds.9 mph78%29.68 "HgN/A
9:00 AM72 °FScattered clouds.7 mph69%29.71 "HgN/A
8:30 AM70 °FThundershowers. Scattered clouds.8 mph83%29.71 "HgN/A
8:00 AM68 °FThundershowers. Partly sunny.7 mph83%29.71 "HgN/A
7:00 AM66 °FPassing clouds.3 mph88%29.68 "HgN/A
6:30 AM66 °FThundershowers. Passing clouds.3 mph88%29.68 "HgN/A
6:00 AM64 °FPassing clouds.3 mph88%29.68 "HgN/A
5:30 AM63 °FPassing clouds.1 mph88%29.71 "HgN/A
5:00 AM63 °FPassing clouds.1 mph94%29.74 "HgN/A
4:00 AM63 °FClear.2 mph94%29.74 "Hg10 mi
3:00 AM64 °FClear.1 mph88%29.77 "Hg10 mi
2:00 AM66 °FClear.2 mph88%29.77 "Hg10 mi
1:00 AM66 °FClear.2 mph83%29.80 "Hg10 mi
12:00 AM68 °FClear.1 mph83%29.80 "Hg10 mi
11:00 PM
Aug 31
70 °FClear.2 mph78%29.83 "Hg10 mi
10:00 PM72 °FClear.2 mph73%29.83 "Hg10 mi
9:00 PM73 °FPassing clouds.6 mph74%29.83 "HgN/A
8:00 PM77 °FPassing clouds.7 mph65%29.83 "HgN/A
7:00 PM81 °FPassing clouds.3 mph54%29.83 "HgN/A
6:00 PM84 °FPassing clouds.6 mph48%29.83 "HgN/A
5:00 PM86 °FPassing clouds.8 mph40%29.83 "HgN/A
4:00 PM86 °FPassing clouds.8 mph43%29.86 "HgN/A
3:00 PM88 °FPassing clouds.6 mph38%29.86 "HgN/A
Weather by CustomWeather, © 2014

See weather overviewHow to use our weather pages